Voltar ao catálogo

OPS 0757

TACSAT

AtivoMilitarGEO
NORAD 3691·PAYLOAD·🇺🇸 United States

Lançado Feb 9, 1969 de Cape Canaveral Space Force Station

Loading…

TLE

AtualizadoSource: Space-Track

Época: Sep 14, 2026, 14:00 UTC

1 03691U 69013A   26257.58368105  .00000121  00000-0  00000-0 0  9990
2 03691   3.0700  73.6766 0022075 174.8944 358.1641  1.00438107115008

Acompanhe OPS 0757 em tempo real com AllMySat

Download on the App Store